STARLINK-3790, 52274

Orbit data source: Space-Track

STARLINK-3790, 52274 is a payload satellite owned by SpaceX/Seattle (US) in LEO that was launched on Thu, 21 Apr 2022 UTC via an FALCON 9 launch vehicle from the Air Force Eastern Test Range (AFETR). Payload-class satellites include a variety of spacecraft equipped with specific instruments for various scientific and technological missions. These include communications satellites like Starlink; space stations such as the ISS; scientific satellites like the Hubble; Earth observation satellites from companies like Planet Labs, Umbra, and HawkEye 360; GPS; miniature CubeSats for education and research; and military/defense satellites.

Loading next visibility...
Identifier
52274, 2022-041P
Orbit
LEO
Country
Flag of USUS
Related business
Manufacturer
SpaceX/Seattle
Mission
Operational Commercial Communications
Bus & Motor
STARLINK, Unknown motor
Mass
297 kg wet, ~275 kg dry
Launch date (UTC)
2022-04-21 (4 years ago)
Launch vehicle
FALCON 9
Launch site
Air Force Eastern Test Range (AFETR)
Object type
Payload
Rocket body
Debris
Shape & HBR
Box + 1 Pan, 10.1 m
Radar Cross Section
11.087 m², Large (>1 m²)

Expand to show TLE details & history
Last TLE update: 21 hours ago

TLE from 21 hours ago
0 STARLINK-3790
1 52274U 22041P   26236.26497257 -.00000100  00000-0  85533-5 0  9991
2 52274  53.1600  67.9692 0001309  84.4597 275.6554 15.31701422239785
Epoch: 2026-08-24T06:21Z
TLE epoch observation values (Epoch: 2026-08-24T06:21:33.630Z)
Latitude
0.00003°
Longitude
0.02993°
Altitude
471.548 km
Speed
7.632 km/s
True Right ascension
04h 31m 52s
True Declination
0° 00' 00"
Sunlit
Object was in daylight at epoch
Visualization orbit readout
Latitude
Unknown
Longitude
Unknown
Altitude
Unknown
Speed
Unknown
Apparent Right ascension
Unknown
Apparent Declination
Unknown
Sunlit
N/A
Visualization observer readout
Local Sidereal Time
18:14:12
Azimuth
Unknown
Elevation
Unknown
Doppler factor
Unknown
Orbital elements
Apogee altitude
471.889 km
Perigee altitude
470.096 km
Semi-major axis
6,849.129 km
Eccentricity
0.00013
Inclination
53.16°
RAAN
67.9692°
Arg. of periapsis
84.4597°
True anomaly
275.64047°
Mean anomaly
275.6554°
Eccentric anomaly
275.64794°
Mean motion
3.82904 °/min
Orbital period
94.02 mins
BSTAR
0.0000085533
Loading maneuver chart data...
Computing Atmospheric mass density...
Loading historical data...
Loading historical data...
Loading historical data...
Loading historical data...
Loading historical data...
Loading historical data...
Loading historical data...

Documentation

Showing up to 5 results
|